ARABSAT-5A

Last updated on Thu Oct 30 2025 00:02:48 GMT+0000 (Coordinated Universal Time)

1 36745U 10032B 25302.47714441 .00000163 00000+0 00000+0 0 9993 2 36745 0.0722 46.7169 0003880 172.1976 21.4152 1.00271032 56331
UTC large
Height (km)
Speed (km/s)
/
Latitude / Longitude
Inclination (degrees)
Orbital Period (minutes)
Azimuth
Elevation
Range (km)
Doppler Factor

Next 0 passes for location: London (51.5072 / 0.1276)

Sorry there are no passes over London.